Location: Nasgenstadt
(48.2786°N, 9.7553°E)
Time: 02:58:21
(UTC+01:00)

ISS - Pass Details

Date: 11 January 2018
Orbit: 402 x 407 km, 51.6° (Epoch: 18 January)

Event Time Altitude Azimuth Distance (km) Brightness Sun altitude
Exits shadow 05:41:18 38° 80° (E) 638 -2.4 -23.9°
Drops below altitude 10° 05:43:32 10° 98° (E) 1,466 0.1 -23.5°
Sets 05:45:38 0° 101° (ESE) 2,326 1.5 -23.1°
